User: anonymous   Login
Location: Fort Wayne
(41.1310°N, 85.1290°W)
Time: 09:11:56
(UTC-04:00)
Language:

Cosmos 1953 - Orbit

View from above orbital plane
View from above orbital plane
View from above satellite
View from above satellite

Ground track
Ground track

The orbit data is extracted from the following two-line orbital elements,

1 19210U 88050A   15091.14579698  .00003871  00000-0  28091-3 0  9991
2 19210 082.5148 095.9868 0015489 128.4024 231.8595 15.03556361456335
Epoch (UTC): 01 April 2015 03:29:56
Eccentricity: 0.0015489
inclination: 82.5148°
perigee height: 545 km
apogee height: 566 km
right ascension of ascending node: 95.9868°
argument of perigee: 128.4024°
revolutions per day: 15.03556361
mean anomaly at epoch: 231.8595°
orbit number at epoch: 45633

The dashed part of the orbit path shows where the satellite is in the earth's shadow,  

DLR